Torna al catalogo

KSM1-B

AttivoMilitareVLEO
NORAD 46914·PAYLOAD·🇱🇺 Luxembourg

Lanciato Nov 7, 2020 da Satish Dhawan Space Centre

Loading…

Prossimi Passaggi (prossime 24 ore)

TLE

AggiornatoSource: Space-Track

Epoca: Sep 14, 2026, 09:36 UTC

1 46914U 20081K   26257.40009236  .00006109  00000-0  23839-3 0  9995
2 46914  36.9010 239.2504 0005526 285.9449  74.0691 15.25607956325811

Traccia KSM1-B in tempo reale con AllMySat

Download on the App Store